This is the latest recevied weather packets stored in our database for station/object F4FEB-13. If no packets are shown the sender has not sent any weather packets the latest 1 day(s).
| Time | Temp. | Humidity | Pressure | Rain* | Wind** | Luminosity | Snow |
|---|---|---|---|---|---|---|---|
| 1778008157 | 11.67° C | 83% | 1008.5 hPa | 0 mm | 1.34 m/s, 217° | - | - |
| 1778007857 | 11.67° C | 82% | 1008.4 hPa | 0 mm | 1.34 m/s, 254° | - | - |
| 1778007560 | 11.67° C | 82% | 1008.4 hPa | 0 mm | 3.13 m/s, 217° | - | - |
| 1778007557 | 11.67° C | 82% | 1008.4 hPa | 0 mm | 3.13 m/s, 217° | - | - |
| 1778007257 | 11.67° C | 82% | 1008.4 hPa | 0 mm | 0.89 m/s, 140° | - | - |
| 1778006957 | 11.67° C | 83% | 1008.5 hPa | 0 mm | 1.34 m/s, 233° | - | - |
| 1778006657 | 11.67° C | 84% | 1008.4 hPa | 0 mm | 0.89 m/s, 275° | - | - |
| 1778006357 | 11.67° C | 84% | 1008.5 hPa | 0 mm | 2.24 m/s, 257° | - | - |
| 1778006057 | 11.67° C | 85% | 1008.4 hPa | 0 mm | 2.24 m/s, 257° | - | - |
| 1778005761 | 11.67° C | 85% | 1008.4 hPa | 0 mm | 1.34 m/s, 240° | - | - |
| 1778005757 | 11.67° C | 85% | 1008.4 hPa | 0 mm | 1.34 m/s, 240° | - | - |
| 1778005457 | 11.67° C | 86% | 1008.3 hPa | 0 mm | 1.79 m/s, 240° | - | - |
| 1778005158 | 11.67° C | 86% | 1008.3 hPa | 0 mm | 3.13 m/s, 255° | - | - |
| 1778004861 | 11.67° C | 86% | 1008.3 hPa | 0 mm | 1.34 m/s, 247° | - | - |
| 1778004857 | 11.67° C | 86% | 1008.3 hPa | 0 mm | 1.34 m/s, 247° | - | - |
| 1778004557 | 11.67° C | 85% | 1008.2 hPa | 0 mm | 1.34 m/s, 240° | - | - |
| 1778004257 | 11.67° C | 85% | 1008.1 hPa | 0 mm | 2.68 m/s, 267° | - | - |
| 1778003958 | 12.22° C | 85% | 1008.2 hPa | 0 mm | 1.79 m/s, 262° | - | - |
| 1778003658 | 12.22° C | 84% | 1008.2 hPa | 0 mm | 2.68 m/s, 257° | - | - |
| 1778003357 | 12.22° C | 84% | 1008.2 hPa | 0 mm | 3.58 m/s, 234° | - | - |
| 1778003063 | 12.22° C | 86% | 1008.2 hPa | 0 mm | 0.89 m/s, 271° | - | - |
| 1778003058 | 12.22° C | 86% | 1008.2 hPa | 0 mm | 0.89 m/s, 271° | - | - |
| 1778002758 | 12.22° C | 86% | 1008.3 hPa | 0 mm | 3.13 m/s, 241° | - | - |
| 1778002458 | 12.22° C | 86% | 1008.4 hPa | 0 mm | 1.34 m/s, 177° | - | - |
| 1778002162 | 12.22° C | 86% | 1008.4 hPa | 0 mm | 2.68 m/s, 244° | - | - |
* Rain latest hour (hover to see other rain measurements)
** Current wind speed in m/s (hover to see current wind gust speed)